Regional Weather Roundup
Issued by NWS

Home | Current Version | Previous Version | Text Only | Print | Product List | Glossary Off
Versions: 1 2 3 4 5 6 7 8 9 10 11 12 13 14 15 16 17 18 19 20 21 22 23 24 25 26 27 28 29 30 31 32 33 34 35 36 37 38 39 40 41 42 43 44 45 46 47 48 49 50

000
ASUS44 KMEG 280900
RWRTN
TENNESSEE HOURLY STATE WEATHER ROUNDUP
NATIONAL WEATHER SERVICE MEMPHIS TN
300 AM CST SUN DEC 28 2014

TNZ002-004-019-021-049-052-054-088>092-281000-
WEST TENNESSEE

CITY           SKY/WX    TMP DP  RH WIND       PRES   REMARKS
MEMPHIS INTL   CLOUDY    42  40  92 N13G22    30.15R
NWS MEMPHIS      N/A     41 N/A N/A MISG        N/A
JACKSON        CLOUDY    41  39  93 N13       30.13R
DYERSBURG      CLOUDY    39  27  60 N10G16    30.18R WCI  32
UNION CITY     CLOUDY    37  37 100 N12       30.15S WCI  30
PARIS          CLOUDY    37  36  93 N12       30.13S WCI  30
LEXINGTON      CLOUDY    46  45  93 N9        30.07S
SAVANNAH       CLOUDY    48  48 100 CALM      30.06F
$$

TNZ008-025-027-028-033-062-065-066-281000-
NORTH MIDDLE TENNESSEE

CITY           SKY/WX    TMP DP  RH WIND       PRES   REMARKS
NASHVILLE      CLOUDY    49  49 100 CALM      30.07S FOG
CLARKSVILLE    LGT RAIN  42  40  92 N18G24    30.12R FOG
COOKEVILLE     CLOUDY    48  48 100 CALM      30.05F
CROSSVILLE     CLOUDY    51  48  89 NW5       30.06F FOG
$$

TNZ061-075-076-078-094-096-097-281000-
SOUTH MIDDLE TENNESSEE

CITY           SKY/WX    TMP DP  RH WIND       PRES   REMARKS
FAYETTEVILLE   CLOUDY    50  48  93 MISG      30.04F
TULLAHOMA      CLOUDY    48  48 100 CALM      30.07S
WINCHESTER     CLOUDY    52  52 100 CALM      30.05F
SHELBYVILLE    CLOUDY    52  50  93 CALM      30.07S
$$

TNZ017-018-042-046-047-281000-
NORTHEAST TENNESSEE

CITY           SKY/WX    TMP DP  RH WIND       PRES   REMARKS
TRI CITIES     CLOUDY    46  42  86 CALM      30.05F
ELIZABETHTON   MOSUNNY   43  37  81 CALM      30.06F
$$

TNZ012-013-036-069-073-074-281000-
CENTRAL EAST TENNESSEE

CITY           SKY/WX    TMP DP  RH WIND       PRES   REMARKS
KNOXVILLE      LGT RAIN  48  43  82 CALM      30.06F
OAK RIDGE      LGT RAIN  50  48  93 S5        30.06F
GATLINBURG     SUNNY     45  39  81 CALM      30.06F
$$

TNZ083-085-099-281000-
SOUTHEAST TENNESSEE

CITY           SKY/WX    TMP DP  RH WIND       PRES   REMARKS
CHATTANOOGA    LGT RAIN  52  51  97 CALM      30.08S
$$

SKY/WX REPORTED AS FAIR MEANS FEW OR NO CLOUDS BELOW
12 THOUSAND FEET.




USA.gov is the U.S. government's official web portal to all federal, state and local government web resources and services.